• en France
  • Liste des pays
  • À 7 jours
  • Température de l'eau
  • Carte satellitaire
  • Carte météo
  • Widgets météo
  • user-avatar
    Se connecter

    Météo par heure à Leticia

    Ce jour, 20 Août, Lundi

    Heure Température Précipitation Vent Pression Humidité
    00:00 +22°C° 0 mm 0 m/s 753 mmHg 96%
    01:00 +22°C° 0 mm 0 m/s 753 mmHg 96%
    02:00 +22°C° 0,1 mm 0 m/s 753 mmHg 96%
    03:00 +22°C° 0,1 mm 0 m/s 753 mmHg 97%
    04:00 +21°C° 0,1 mm 0 m/s 753 mmHg 97%
    05:00 +22°C° 0 mm 0 m/s 754 mmHg 96%
    06:00 +22°C° 0 mm 0 m/s 754 mmHg 95%
    07:00 +23°C° 0 mm 0 m/s 755 mmHg 94%
    08:00 +26°C° 0,2 mm 0 m/s 754 mmHg 82%
    09:00 +29°C° 0,2 mm 0 m/s 754 mmHg 70%
    10:00 +32°C° 0,2 mm 0 m/s 754 mmHg 58%
    11:00 +33°C° 0,9 mm 1 m/s 754 mmHg 63%
    12:00 +32°C° 0,9 mm 1 m/s 753 mmHg 68%
    13:00 +32°C° 0,9 mm 1 m/s 753 mmHg 73%
    14:00 +31°C° 1,1 mm 1 m/s 752 mmHg 75%
    15:00 +31°C° 1,1 mm 1 m/s 752 mmHg 77%
    16:00 +30°C° 1,1 mm 1 m/s 752 mmHg 79%
    17:00 +29°C° 0,3 mm 1 m/s 752 mmHg 84%
    18:00 +27°C° 0,3 mm 1 m/s 752 mmHg 90%
    19:00 +26°C° 0,3 mm 1 m/s 753 mmHg 95%
    20:00 +25°C° 0 mm 1 m/s 753 mmHg 95%
    21:00 +25°C° 0 mm 1 m/s 753 mmHg 95%
    22:00 +25°C° 0 mm 1 m/s 754 mmHg 95%
    23:00 +22°C° 0 mm 0 m/s 754 mmHg 95%

    Demain, 21 Août, Mardi

    Heure Température Précipitation Vent Pression Humidité
    00:00 +22°C° 0 mm 0 m/s 754 mmHg 95%
    01:00 +22°C° 0 mm 0 m/s 753 mmHg 95%
    02:00 +22°C° 0,4 mm 0 m/s 753 mmHg 96%
    03:00 +21°C° 0,4 mm 0 m/s 753 mmHg 96%
    04:00 +21°C° 0,4 mm 0 m/s 753 mmHg 97%
    05:00 +22°C° 1 mm 0 m/s 754 mmHg 97%
    06:00 +24°C° 1 mm 1 m/s 754 mmHg 97%
    07:00 +24°C° 1 mm 1 m/s 755 mmHg 97%
    08:00 +26°C° 1 mm 1 m/s 755 mmHg 94%
    09:00 +27°C° 1 mm 1 m/s 755 mmHg 92%
    10:00 +28°C° 1 mm 1 m/s 755 mmHg 90%
    11:00 +29°C° 0,8 mm 1 m/s 754 mmHg 84%
    12:00 +30°C° 0,8 mm 1 m/s 754 mmHg 78%
    13:00 +31°C° 0,8 mm 1 m/s 753 mmHg 73%
    14:00 +31°C° 1,6 mm 1 m/s 752 mmHg 79%
    15:00 +30°C° 1,6 mm 1 m/s 752 mmHg 85%
    16:00 +29°C° 1,6 mm 1 m/s 751 mmHg 91%
    17:00 +26°C° 0,8 mm 0 m/s 752 mmHg 93%
    18:00 +25°C° 0,8 mm 0 m/s 752 mmHg 94%
    19:00 +23°C° 0,8 mm 0 m/s 753 mmHg 96%
    20:00 +23°C° 0 mm 0 m/s 753 mmHg 97%
    21:00 +23°C° 0 mm 0 m/s 754 mmHg 97%
    22:00 +23°C° 0 mm 0 m/s 754 mmHg 97%
    23:00 +22°C° 0 mm 0 m/s 754 mmHg 97%

    Après-demain, 22 Août, Mercredi

    Heure Température Précipitation Vent Pression Humidité
    00:00 +22°C° 0 mm 0 m/s 754 mmHg 97%
    01:00 +22°C° 0 mm 0 m/s 754 mmHg 98%
    02:00 +22°C° 0,1 mm 0 m/s 753 mmHg 98%
    03:00 +22°C° 0,1 mm 0 m/s 753 mmHg 98%
    04:00 +22°C° 0,1 mm 0 m/s 753 mmHg 98%
    05:00 +22°C° 0 mm 0 m/s 754 mmHg 97%
    06:00 +22°C° 0 mm 0 m/s 754 mmHg 97%
    07:00 +23°C° 0 mm 0 m/s 754 mmHg 96%
    08:00 +25°C° 0,2 mm 0 m/s 755 mmHg 86%
    09:00 +29°C° 0,2 mm 1 m/s 755 mmHg 75%
    10:00 +32°C° 0,2 mm 1 m/s 755 mmHg 65%
    11:00 +32°C° 0,5 mm 1 m/s 754 mmHg 61%
    12:00 +33°C° 0,5 mm 1 m/s 753 mmHg 58%
    13:00 +34°C° 0,5 mm 1 m/s 752 mmHg 54%
    14:00 +34°C° 0 mm 1 m/s 752 mmHg 55%
    15:00 +33°C° 0 mm 1 m/s 751 mmHg 56%
    16:00 +33°C° 0 mm 1 m/s 750 mmHg 57%
    17:00 +31°C° 0,1 mm 1 m/s 751 mmHg 66%
    18:00 +29°C° 0,1 mm 1 m/s 751 mmHg 74%
    19:00 +25°C° 0,1 mm 0 m/s 752 mmHg 83%
    20:00 +24°C° 0 mm 0 m/s 752 mmHg 85%
    21:00 +26°C° 0 mm 1 m/s 753 mmHg 88%
    22:00 +25°C° 0 mm 1 m/s 753 mmHg 90%
    23:00 +23°C° 0,2 mm 0 m/s 753 mmHg 92%

    23 Août, Jeudi

    Heure Température Précipitation Vent Pression Humidité
    00:00 +23°C° 0,2 mm 0 m/s 753 mmHg 93%
    01:00 +22°C° 0,2 mm 0 m/s 752 mmHg 95%
    02:00 +22°C° 0,6 mm 0 m/s 752 mmHg 96%
    03:00 +22°C° 0,6 mm 0 m/s 752 mmHg 97%
    04:00 +22°C° 0,6 mm 0 m/s 752 mmHg 98%
    05:00 +22°C° 0,7 mm 0 m/s 753 mmHg 98%
    06:00 +22°C° 0,7 mm 0 m/s 753 mmHg 97%
    07:00 +25°C° 0,7 mm 1 m/s 754 mmHg 97%
    08:00 +27°C° 0,1 mm 1 m/s 754 mmHg 86%
    09:00 +30°C° 0,1 mm 1 m/s 754 mmHg 75%
    10:00 +32°C° 0,1 mm 1 m/s 754 mmHg 65%
    11:00 +33°C° 0,2 mm 1 m/s 753 mmHg 61%
    12:00 +34°C° 0,2 mm 1 m/s 752 mmHg 57%
    13:00 +35°C° 0,2 mm 1 m/s 751 mmHg 53%
    14:00 +34°C° 0,6 mm 1 m/s 751 mmHg 59%
    15:00 +32°C° 0,6 mm 1 m/s 750 mmHg 66%
    16:00 +31°C° 0,6 mm 1 m/s 749 mmHg 72%
    17:00 +29°C° 0,1 mm 1 m/s 750 mmHg 79%
    18:00 +28°C° 0,1 mm 1 m/s 750 mmHg 86%
    19:00 +26°C° 0,1 mm 1 m/s 751 mmHg 93%
    20:00 +24°C° 0 mm 0 m/s 751 mmHg 93%
    21:00 +23°C° 0 mm 0 m/s 752 mmHg 94%
    22:00 +23°C° 0 mm 0 m/s 752 mmHg 94%
    23:00 +23°C° 0 mm 0 m/s 752 mmHg 94%

    24 Août, Vendredi

    Heure Température Précipitation Vent Pression Humidité
    00:00 +23°C° 0 mm 0 m/s 752 mmHg 94%
    01:00 +23°C° 0 mm 0 m/s 752 mmHg 94%
    02:00 +22°C° 0 mm 0 m/s 751 mmHg 95%
    03:00 +22°C° 0 mm 0 m/s 751 mmHg 95%
    04:00 +22°C° 0 mm 0 m/s 751 mmHg 96%
    05:00 +22°C° 0 mm 0 m/s 752 mmHg 94%
    06:00 +23°C° 0 mm 0 m/s 752 mmHg 91%
    07:00 +24°C° 0 mm 0 m/s 753 mmHg 89%
    08:00 +29°C° 0 mm 1 m/s 753 mmHg 76%
    09:00 +32°C° 0 mm 1 m/s 753 mmHg 64%
    10:00 +35°C° 0 mm 1 m/s 753 mmHg 51%
    11:00 +35°C° 0 mm 1 m/s 752 mmHg 48%
    12:00 +36°C° 0 mm 1 m/s 751 mmHg 46%
    13:00 +36°C° 0 mm 1 m/s 751 mmHg 44%
    14:00 +36°C° 0 mm 1 m/s 750 mmHg 46%
    15:00 +33°C° 0 mm 0 m/s 750 mmHg 49%
    16:00 +33°C° 0 mm 0 m/s 749 mmHg 52%
    17:00 +31°C° 0 mm 0 m/s 750 mmHg 58%
    18:00 +29°C° 0 mm 0 m/s 750 mmHg 64%
    19:00 +26°C° 0 mm 0 m/s 751 mmHg 71%
    20:00 +26°C° 0 mm 0 m/s 751 mmHg 72%
    21:00 +25°C° 0 mm 0 m/s 752 mmHg 74%
    22:00 +25°C° 0 mm 0 m/s 752 mmHg 75%
    23:00 +25°C° 0 mm 0 m/s 752 mmHg 76%

    25 Août, Samedi

    Heure Température Précipitation Vent Pression Humidité
    00:00 +24°C° 0 mm 0 m/s 752 mmHg 77%
    01:00 +24°C° 0 mm 0 m/s 752 mmHg 78%
    02:00 +24°C° 0 mm 0 m/s 752 mmHg 79%
    03:00 +24°C° 0 mm 0 m/s 752 mmHg 80%
    04:00 +23°C° 0 mm 0 m/s 752 mmHg 81%
    05:00 +24°C° 0 mm 0 m/s 752 mmHg 80%
    06:00 +25°C° 0 mm 0 m/s 753 mmHg 80%
    07:00 +25°C° 0 mm 0 m/s 754 mmHg 79%
    08:00 +28°C° 0 mm 0 m/s 754 mmHg 68%
    09:00 +31°C° 0 mm 0 m/s 754 mmHg 57%
    10:00 +34°C° 0 mm 0 m/s 754 mmHg 46%
    11:00 +37°C° 0 mm 1 m/s 753 mmHg 43%
    12:00 +37°C° 0 mm 1 m/s 752 mmHg 39%
    13:00 +39°C° 0 mm 2 m/s 751 mmHg 35%
    14:00 +37°C° 0 mm 1 m/s 751 mmHg 40%
    15:00 +36°C° 0 mm 1 m/s 750 mmHg 45%
    16:00 +34°C° 0 mm 1 m/s 750 mmHg 50%
    17:00 +33°C° 0 mm 1 m/s 750 mmHg 56%
    18:00 +29°C° 0 mm 0 m/s 751 mmHg 62%
    19:00 +27°C° 0 mm 0 m/s 751 mmHg 67%
    20:00 +26°C° 0 mm 0 m/s 752 mmHg 71%
    21:00 +26°C° 0 mm 0 m/s 752 mmHg 75%
    22:00 +27°C° 0 mm 1 m/s 753 mmHg 78%
    23:00 +26°C° 0,8 mm 1 m/s 753 mmHg 84%
    Voir plus